Regional Weather Roundup
Issued by NWS Wakefield, VA

Home | Current Version | Previous Version | Text Only | Print | Product List | Glossary Off
Versions: 1 2 3 4 5 6 7 8 9 10 11 12 13 14 15 16 17 18 19 20 21 22 23 24 25 26 27

000
ASUS41 KAKQ 031615
RWRAKQ

REGIONAL WEATHER ROUNDUP
NATIONAL WEATHER SERVICE WAKEFIELD VA
1200 PM EDT TUE MAY 03 2016

Note: "fair" indicates few or no clouds below 12,000 feet with no
significant weather and/or obstructions to visibility. * = Denotes
station may not report precipitation (e.g., rain,snow,etc.),
thunder or fog.

VAZ042-051-052>054-056-031700-
NORTHERN VIRGINIA

CITY           SKY/WX    TMP DP  RH WIND       PRES   REMARKS
WASH NATIONAL  CLOUDY    69  61  75 N7        29.79F
DULLES         PTSUNNY   65  57  75 NW8       29.82R
FORT BELVOIR   FAIR      69  58  68 NW9       29.80R
QUANTICO       CLOUDY    67  62  84 S5        29.81S
FREDERICKSBRG* PTSUNNY   69  62  79 N7        29.79R
STAFFORD*      PTSUNNY   69  60  74 N8        29.84R
WARRENTON      CLOUDY    70  56  62 N6        29.80F
CULPEPER*      PTSUNNY   69  60  72 N9        29.81F
MANASSAS*      PTSUNNY   68  63  83 NW8       29.81R
LEESBURG*      PTSUNNY   66  61  82 NW5       29.82R
WINCHESTER     CLOUDY    66  55  68 NE3       29.82R
FRONT ROYAL*   CLOUDY    64  59  82 CALM      29.81S
LURAY*         CLOUDY    64  61  88 N8        29.81S
$$

VAZ048-049-060>072-079>083-031700-
CENTRAL AND SOUTH CENTRAL VIRGINIA

CITY           SKY/WX    TMP DP  RH WIND       PRES   REMARKS
RICHMOND       CLOUDY    69  63  81 SW6       29.79F
CHESTERFIELD*  PTSUNNY   70  54  56 SW6       29.81S
PETERSBURG*    PTSUNNY   71  65  82 SW8       29.81S
HANOVER        FAIR      70  59  68 CALM      29.80F
TAPPAHANNOCK*  PTSUNNY   69  64  81 CALM      29.80F
QUINTON*       FAIR      68  64  86 CALM      29.79S
CHARLOTTSVILLE FAIR      73  57  57 N5        29.79F
GORDONSVILLE*  FAIR      71  60  69 CALM      29.78F
ORANGE*        PTSUNNY   72  63  73 NE5       29.80F
LOUISA*        FAIR      75  64  69 NW3       29.78F
BUMPASS*       PTSUNNY   69  63  79 CALM      29.79S
FARMVILLE*     FAIR      72  62  71 W3        29.79S
CREWE*         FAIR      69  64  84 S3        29.80F
FORT PICKETT*  NOT AVBL
CHASE CITY*    PTSUNNY   68  65  90 SW6       29.82S
CLARKSVILLE*   PTSUNNY   68  64  88 SW8       29.82S
SOUTH HILL*    CLOUDY    67  64  89 SW7       29.87F
LAWRENCEVILLE* CLOUDY    67  65  93 SW6       29.82S
EMPORIA*       CLOUDY    64  64 100 S5        29.84S FOG
$$

VAZ088>098-031700-
SOUTHEAST VIRGINIA

CITY           SKY/WX    TMP DP  RH WIND       PRES   REMARKS
NORFOLK        PTSUNNY   70  64  81 SW13      29.80F
VIRGINIA BEACH CLOUDY    72  63  73 SW12      29.80F
NORFOLK NAVAL  CLOUDY    70  65  84 SW10      29.81F
WEST POINT*    FAIR      68  64  85 W3        29.80F
SALUDA*        CLOUDY    67  65  93 W3        29.79F
NEWPORT NEWS   CLOUDY    68  65  90 SW13      29.80F
LANGLEY AFB    CLOUDY    70  66  88 SW10      29.79F
FORT EUSTIS    CLOUDY    69  69 100 VRB6      29.78F
WILLIAMSBURG*  FAIR      70  66  88 W5        29.80F
HR EXEC AP*    CLOUDY    70  64  83 SW9       29.83F
FRANKLIN*      CLOUDY    67  64  89 SW6       29.82F
US460-WAKEFLD  CLOUDY    70  64  81 SW7       29.80F
$$

VAZ020-022-025-037-045-031700-
WEST CENTRAL AND SOUTHWEST VIRGINIA

CITY           SKY/WX    TMP DP  RH WIND       PRES   REMARKS
STAUNTON*      PTSUNNY   70  60  68 CALM      29.83S
WAYNESBORO*    PTSUNNY   68  57  68 CALM      29.82S
HOT SPRINGS VA CLOUDY    59  55  85 W13       29.88R
LYNCHBURG      PTSUNNY   69  60  73 VRB5      29.83S
DANVILLE       FAIR      69  60  73 W5        29.83F
SOUTH BOSTON*  PTSUNNY   70  65  83 SW7       29.83R
MARTINSVILLE   FAIR      68  60  75 CALM      29.86F
ROANOKE        CLOUDY    69  57  65 W7        29.85R
BLACKSBURG     CLOUDY    64  58  79 CALM      29.89F
DUBLIN*        PTSUNNY   68  58  69 SW6       29.87F
MARION*        PTSUNNY   66  57  73 W12       29.90F
HILLSVILLE*    PTSUNNY   63  57  80 W7        29.88F
RICHLANDS*     RAIN      57  56  94 W7        29.90S
WISE*          CLOUDY    55  54  94 W8        29.93S
ABINGDON*      CLOUDY    65  58  77 W7        29.89F
$$

MDZ021>025-VAZ099-100-031700-
SOUTHERN MARYLAND AND THE DELMARVA PENINSULA

CITY           SKY/WX    TMP DP  RH WIND       PRES   REMARKS
PATUXENT RIVER CLOUDY    68  61  78 NW5       29.79F
BAY BRIDGE APT NOT AVBL
LEONARDTOWN    CLOUDY    66  61  82 N3        29.81F
DOVER          CLOUDY    59  59 100 N8        29.79R
GEORGETOWN     CLOUDY    67  63  87 NW6       29.79R
EASTON         CLOUDY   N/A N/A N/A NW5       29.83S
CAMBRIDGE      CLOUDY    64  61  88 NW5       29.79S
SALISBURY      LGT RAIN  67  64  90 W8        29.78S
OCEAN CITY     CLOUDY    67  65  93 W5        29.78S
WALLOPS ISLAND RAIN      67  65  93 SW5       29.78F FOG
ACCOMACK*      DRIZZLE   64  61  88 SW9       29.79F
$$

NCZ012>017-030>032-031700-
NORTH CENTRAL AND EASTERN NORTH CAROLINA

CITY           SKY/WX    TMP DP  RH WIND       PRES   REMARKS
ROANOKE RAPIDS LGT RAIN  66  64  94 S5        29.83S
RALEIGH        CLOUDY    69  65  86 SW10      29.84S
ELIZABETH CITY CLOUDY    68  65  90 S9        29.83F
AHOSKIE*       CLOUDY    66  64  94 S3        29.83F
EDENTON*       CLOUDY    70  70 100 S8        29.85F
CURRITUCK*     CLOUDY    68  67  95 SW5       29.84S
KILL DEVIL HLS DRIZZLE   68  67  98 CALM      29.85R
MANTEO         NOT AVBL
CAPE HATTERAS  LGT RAIN  67  65  93 W14G23    29.88F
TARBORO*       CLOUDY    70  66  87 S6        29.85S
GOLDSBORO      LGT RAIN  68  68 100 S8        29.85S
WASHINGTON     LGT RAIN  66  65  94 S6        29.86S
GREENVILLE     CLOUDY    68  66  94 S10       29.87F
NEW BERN       LGT RAIN  67  64  90 S8        29.88F
WILMINGTON     LGT RAIN  66  65  96 CALM      29.86F
$$

VAZ048-031700-
ELSEWHERE

CITY           SKY/WX    TMP DP  RH WIND       PRES   REMARKS
HARRISBURG PA  CLOUDY    58  53  84 E3        29.82F
BALTIMORE      CLOUDY    62  60  93 NE8       29.79S FOG
ANNAPOLIS      CLOUDY    60  59  96 N6        29.80S FOG
ANDREWS AFB    PTSUNNY   68  59  73 N5        29.77F
PHILADELPHIA   CLOUDY    57  53  86 NE9       29.83S
HENDERSON NC     N/A     68  68  98 SW5       29.83F
GREENSBORO     CLOUDY    69  62  78 W6        29.84F
ROCKY MOUNT    CLOUDY    70  66  87 S6        29.83F
$$

VAZ100-031700-
MARINE

STATION/POSITION TIME  TEMP    WIND        PRES    WAVE   SWELL
                       AIR SEA DIR/SP/G            HT/PER HT/PER
                 (UTC) (F)     (DEG/KT/KT) (MB)    (FT/S) (FT/S)
BRANDYWINE LGT   1500   57      40/ 12/ 12 1008.7R
CAPE MAY NJ      1500   58 58  350/  2/  3 1008.5R
LEWES DE         1500   58 56  350/  9/ 11 1008.5R
15NM E FENWICK I 1550   56 52              1008.4F   3/ 6
OCEAN-CITY-INLET 1500   58 55  200/  6/  7 1008.0F
WACHAPREAGUE VA  1500   66 66  230/  5/ 11 1008.7F
THOMAS POINT MD  1600   58 58   30/ 10/ 11 1010.3S
GOOSES REEF MD   1600   60 60   30/  8/  8 1009.9F   0
COVE POINT MD    1500   59     350/  4/  5 1009.5R
SOLOMONS ISLAND  1500   66 61  270/  3/  4   N/A
BISHOPS HEAD MD  1500   62 64  250/  4/  5 1008.4R
PINEY POINT MD   1500          320/  8/  8   N/A
POTOMAC MD       1600   63 61  330/  6/  6 1007.7F   0
CAMBRIDGE MD     1500   63 61  280/  3/  5 1008.1R
LEWISETTA VA     1500   66 63  290/  4/  6 1008.7R
RAPPAHANNOCK LGT 1500          200/ 11/ 12 1009.5F
STINGRAY PT      1600   65 62  290/  6/  6 1009.2F   0
YORK RVR RNG VA  1500   65     230/ 10/ 12 1008.6F
YORKTOWN VA      1500   66 63  220/  6/  9 1008.8F
JAMESTOWN VA     1600   67 68  230/  6/  8   N/A
DOMINION TERM VA 1500   65     230/  7/  9 1009.4F
KIPTOPEKE VA     1500      62  220/  7/  8   N/A
CHES BAY BRIDGE  1500   65 62  200/  9/ 11 1009.2F
CAPE HENRY VA    1500   65     200/  6/  9   N/A
CHESAPEAKE LGHT  1500   64     230/ 13/ 14 1010.4S
WILLOUBY STN VA  1500   65     220/ 11/ 12 1010.3F
CAPE HENRY BUOY  1512      60                N/A     2/ 5
CAPE CHARLES BUO 1526      58                N/A     2/ 9   2/ 9
OFFSHORE WE BUOY 1521      56                N/A     2/ 6   2/ 6
64NM E OF VA BCH 1550   58 54  240/ 10/ 10 1010.2R   3/ 6   3/ 6
DUCK PIER NC     1500   66 65  270/  6/  9 1009.9R
44100 DUCK FRF   1524      61                N/A     3/ 6
44056 DUCK FRF   1511      58                N/A     2/10
OREGON INLET NC  1500   66 72  250/  5/  7 1010.8R
HATTERAS NC      1500   67 69  230/  9/ 16 1011.9R
DIAMOND SHLS NC  1550   68 72  270/ 17/ 19 1012.2R   5/ 7   2/17
CAPE LOOKOUT NC  1600   67     270/ 10/ 12 1011.3F
$$




USA.gov is the U.S. government's official web portal to all federal, state and local government web resources and services.